This is the latest recevied weather packets stored in our database for station/object HB9FHL-13. If no packets are shown the sender has not sent any weather packets the latest 10 day(s).
| Time | Temp. | Humidity | Pressure | Rain* | Wind** | Luminosity | Snow |
|---|---|---|---|---|---|---|---|
| 1777429012 | 11.67° C | - | 1017.4 hPa | 0 mm | - | - | - |
| 1777428945 | 11.67° C | - | 1017.4 hPa | 0 mm | - | - | - |
| 1777428728 | 11.11° C | - | 1014.9 hPa | 0 mm | - | - | - |
| 1777428687 | 11.11° C | - | 1014.9 hPa | 0 mm | - | - | - |
| 1777428645 | 11.11° C | - | 1014.9 hPa | 0 mm | - | - | - |
| 1777428409 | 12.22° C | - | 1017.2 hPa | 0 mm | - | - | - |
| 1777428344 | 12.22° C | - | 1017.2 hPa | 0 mm | - | - | - |
| 1777428152 | 11.67° C | - | 1019.8 hPa | 0 mm | - | - | - |
| 1777428044 | 11.67° C | - | 1019.8 hPa | 0 mm | - | - | - |
| 1777427789 | 11.67° C | - | 1016.6 hPa | 0 mm | - | - | - |
| 1777427743 | 11.67° C | - | 1016.6 hPa | 0 mm | - | - | - |
| 1777427443 | 11.67° C | - | 1016.4 hPa | 0 mm | - | - | - |
| 1777427222 | 11.67° C | - | 1015.9 hPa | 0 mm | - | - | - |
| 1777427142 | 11.67° C | - | 1015.9 hPa | 0 mm | - | - | - |
| 1777426906 | 12.22° C | - | 1016.6 hPa | 0 mm | - | - | - |
| 1777426842 | 12.22° C | - | 1016.6 hPa | 0 mm | - | - | - |
| 1777426541 | 11.67° C | - | 1016.6 hPa | 0 mm | - | - | - |
| 1777426241 | 11.67° C | - | 1015.5 hPa | 0 mm | - | - | - |
| 1777425941 | 12.22° C | - | 1019.3 hPa | 0 mm | - | - | - |
| 1777425640 | 12.22° C | - | 1013.7 hPa | 0 mm | - | - | - |
| 1777425340 | 12.78° C | - | 1015.2 hPa | 0 mm | - | - | - |
| 1777425039 | 12.22° C | - | 1017.4 hPa | 0 mm | - | - | - |
| 1777424843 | 11.67° C | - | 1017.5 hPa | 0 mm | - | - | - |
| 1777424739 | 11.67° C | - | 1017.5 hPa | 0 mm | - | - | - |
| 1777424438 | 12.78° C | - | 1016.4 hPa | 0 mm | - | - | - |
* Rain since midnight (hover to see other rain measurements)
** Current wind speed in m/s (hover to see current wind gust speed)